Wind_Speed
67 59 57 64 67 58 30 27 19 12 15 22 17 17 25 28 33 32 26 41 47 46 49 48 55 53 53 48 46 52 53 48 47 44 43 41 37 36 36 36 37 38 38 38 38 39 39
67 56 61 65 69 65 25 7 10 13 15 13 11 7 21 21 30 33 25 36 47 42 49 47 50 43 44 42 35 44 51 49 48 44 42 40 38 36 36 36 36 37 37 37 38 39 40
66 55 62 65 67 74 25 13 16 13 10 9 8 9 10 15 22 17 26 31 47 44 53 65 45 31 28 30 32 39 49 48 46 44 41 39 37 37 35 35 35 34 35 35 36 37 38
68 58 63 67 66 70 59 30 23 9 5 7 3 3 4 25 17 16 21 28 40 52 66 62 32 38 27 26 28 37 41 48 46 42 39 38 37 36 34 34 35 34 34 34 34 34 35
69 58 64 70 59 66 66 55 45 31 19 13 12 14 17 18 16 20 19 28 34 59 64 68 32 42 22 31 31 28 38 39 40 38 37 35 35 34 34 33 33 33 32 31 31 32 31
72 61 61 68 65 57 62 60 54 48 38 37 36 28 29 24 20 17 21 31 33 54 57 58 37 30 34 23 28 28 28 30 31 31 31 30 30 30 30 31 30 29 29 28 29 28 29
73 63 61 65 69 64 55 52 54 48 40 37 34 28 22 17 17 18 22 29 45 41 60 53 19 35 40 30 30 24 19 16 16 17 20 26 30 31 29 28 27 26 26 28 28 27 25
75 68 59 63 68 67 59 54 44 43 43 35 26 21 16 15 22 26 33 40 38 47 51 49 50 34 28 33 19 20 14 17 21 22 23 26 29 28 28 28 27 26 26 25 23 23 23
73 69 55 58 65 65 60 59 55 54 49 44 41 35 29 26 27 37 43 42 41 46 40 33 41 36 21 22 16 18 19 18 17 17 18 21 22 22 23 24 24 23 21 20 19 21 27
69 70 63 53 58 60 61 58 55 52 47 41 39 44 39 35 42 46 51 47 37 39 42 34 29 36 27 27 22 21 20 15 15 16 16 16 18 19 20 21 19 18 17 17 20 22 19
65 68 65 51 53 57 57 56 57 53 54 50 45 44 48 45 46 48 45 40 39 42 45 37 32 32 31 25 19 17 15 14 15 14 14 15 17 17 17 16 15 17 17 19 18 14 15
60 63 66 60 48 48 52 53 53 52 48 48 48 47 45 44 40 36 35 33 34 37 32 29 25 23 23 17 14 14 13 14 14 14 14 15 16 15 14 15 15 16 17 10 11 14 15
63 58 61 63 57 50 43 44 47 47 45 42 43 40 39 35 34 35 35 34 30 31 28 27 25 22 20 18 16 14 12 11 11 12 12 12 13 13 13 14 13 7 5 9 11 13 15
59 60 56 58 58 52 51 47 40 37 39 38 38 36 33 29 29 30 28 30 28 31 31 28 25 22 18 15 13 10 7 6 8 9 10 11 13 10 10 5 4 5 6 8 9 10 12
55 56 56 52 54 52 50 49 47 43 39 36 32 32 32 31 29 25 22 18 22 25 24 24 23 21 18 14 11 10 11 10 10 10 9 10 11 10 6 4 2 2 3 4 6 9 11
53 51 53 52 48 50 48 46 47 46 48 46 40 34 31 28 26 24 21 22 24 23 24 22 20 20 24 25 23 20 17 17 17 17 16 15 13 10 7 3 1 2 3 4 7 9 10
52 50 49 49 47 43 45 44 42 42 42 43 39 39 41 41 39 32 23 22 23 23 23 25 29 29 26 23 21 20 21 21 20 18 16 13 10 7 5 3 4 5 7 9 10 12 14
45 48 47 46 46 42 38 39 39 35 36 37 34 35 38 39 37 31 34 34 34 33 31 28 26 24 23 23 22 20 19 17 15 13 12 11 8 6 7 8 9 11 12 14 16 15 18
42 43 45 43 41 41 37 33 33 34 31 30 29 29 31 33 30 30 29 29 28 28 26 24 23 22 21 19 17 16 15 12 10 9 8 8 9 9 9 9 10 10 13 16 19 21 21
37 40 41 40 38 36 36 33 28 27 28 27 25 24 23 24 24 24 24 24 23 22 21 19 17 15 13 12 11 10 10 10 7 8 9 9 9 11 11 10 11 12 10 10 15 19 21
36 36 34 35 35 33 31 31 28 22 22 22 21 20 20 18 16 15 16 16 15 14 13 11 8 8 6 6 6 8 11 11 11 13 14 15 14 16 21 19 16 17 17 17 15 15 14
36 34 34 30 30 29 28 27 27 24 17 17 16 16 15 15 14 12 11 9 8 7 6 5 5 7 9 9 10 10 11 13 15 14 15 15 14 10 13 19 20 20 20 19 19 21 20
38 34 32 30 25 24 24 24 24 24 22 13 13 13 11 10 10 10 10 8 7 6 7 7 8 8 9 9 9 10 10 11 12 14 15 16 16 14 11 15 16 18 19 21 22 21 22
34 33 33 28 23 22 18 18 20 20 20 21 11 9 10 10 8 6 6 7 7 7 7 7 8 9 10 10 11 11 12 13 15 17 19 21 22 20 15 15 15 18 21 21 23 23 23
34 31 31 26 21 19 21 14 15 17 17 18 17 17 6 9 10 9 8 7 6 6 7 8 9 10 11 12 12 13 16 18 19 21 24 26 27 28 29 25 20 21 22 23 19 24 24
33 28 29 24 24 21 20 18 13 12 14 14 15 16 19 9 10 12 13 13 11 10 11 11 12 14 15 17 19 19 19 20 20 18 17 19 19 20 23 23 21 27 28 23 27 26 22
28 25 27 26 25 25 23 19 16 14 14 14 14 12 14 16 18 12 13 16 17 17 18 18 17 21 19 20 18 16 15 15 16 19 21 20 21 21 24 24 19 22 24 29 30 30 27
30 27 27 26 22 24 25 22 17 16 16 15 15 13 13 12 13 14 14 13 14 15 15 16 17 15 12 13 13 14 13 15 16 20 23 23 26 26 27 29 30 26 26 23 21 24 28
35 30 27 31 28 24 24 25 21 18 18 17 17 18 15 14 14 14 16 13 12 11 13 14 10 9 11 13 13 14 16 16 17 18 21 21 24 26 27 26 30 29 28 27 25 22 21
Wind_Direction
359 7 360 358 360 352 341 285 267 252 232 241 234 244 238 240 215 201 208 196 196 199 196 191 187 201 218 229 224 218 217 218 219 220 223 225 228 233 238 244 248 252 256 260 261 263 265
7 12 4 2 9 9 11 325 308 318 242 228 226 285 242 234 212 200 199 193 184 190 188 185 190 195 200 204 211 210 211 216 220 221 224 228 231 235 240 245 250 254 258 262 264 266 267
13 12 5 9 12 22 22 17 0 326 234 229 258 275 255 194 172 172 199 193 177 180 172 165 175 175 176 191 206 206 209 212 217 221 223 227 232 236 239 245 251 255 259 263 265 266 267
17 13 8 16 20 30 37 34 20 349 301 302 324 262 150 157 148 174 172 193 177 176 176 176 164 162 165 182 186 192 197 206 213 218 223 227 233 237 240 245 250 255 260 264 267 269 270
18 16 13 21 25 31 38 41 37 42 48 48 53 99 116 126 133 145 174 177 175 171 180 189 172 161 156 167 166 180 192 201 208 214 221 227 233 238 243 248 254 258 262 263 266 268 270
19 22 17 23 28 31 38 45 50 52 65 79 85 87 100 108 131 145 155 159 162 173 181 193 183 188 169 167 171 179 183 193 204 210 220 229 237 245 249 253 257 259 260 261 263 266 270
20 27 25 26 30 35 36 42 50 61 78 71 79 95 112 110 118 124 140 152 154 165 178 182 173 173 168 160 138 147 159 176 191 201 224 237 241 245 254 256 255 256 257 260 263 267 271
23 24 29 31 34 38 44 48 46 49 52 58 61 73 107 99 110 122 123 129 144 162 164 179 196 185 177 184 203 210 217 232 236 239 248 243 238 239 242 248 250 253 255 261 267 273 281
24 24 35 35 39 39 42 50 51 52 55 59 69 75 80 90 107 114 119 129 137 156 154 156 177 174 186 192 201 204 216 222 225 223 229 234 233 233 236 241 246 252 257 265 274 283 288
25 28 31 38 37 44 43 45 45 54 58 64 70 78 85 90 102 111 112 113 128 142 151 151 162 175 179 178 184 190 188 193 217 216 211 219 224 226 232 241 248 256 264 270 280 287 283
24 28 30 39 40 43 45 45 48 56 62 66 73 74 87 99 107 109 116 108 112 131 134 138 150 164 181 182 193 199 213 217 203 213 213 218 226 231 236 241 250 261 264 282 287 285 289
27 26 30 32 39 39 46 48 50 52 55 63 71 79 89 94 104 109 118 122 122 134 128 137 149 159 171 183 183 181 190 194 205 215 218 220 225 230 239 250 260 269 287 273 277 287 296
28 29 29 31 34 39 40 48 49 51 55 57 61 73 88 96 96 106 112 120 123 138 128 129 130 142 150 145 149 157 172 188 201 210 217 223 230 240 251 259 277 277 265 285 294 290 296
28 29 32 31 32 38 41 44 49 50 52 60 66 69 75 83 94 102 110 112 117 118 119 123 126 128 126 128 136 147 165 195 218 229 234 234 235 249 248 234 221 269 283 280 289 297 312
25 27 31 33 32 35 45 48 53 56 59 58 65 73 77 78 81 86 95 101 113 115 116 118 122 122 122 126 132 132 121 122 123 125 134 142 137 130 140 144 195 252 265 287 299 332 321
24 27 28 32 35 33 36 50 52 55 61 64 65 71 75 81 87 91 90 103 108 111 113 115 119 121 121 119 117 109 108 109 110 108 106 106 107 107 110 103 81 351 328 300 323 336 339
19 24 27 28 32 37 35 35 52 54 57 61 63 69 74 75 74 72 85 92 103 110 111 111 115 115 113 111 109 107 104 100 97 93 89 88 86 83 76 48 358 335 329 322 323 321 326
17 19 24 28 27 32 37 36 35 51 59 64 63 70 72 74 73 80 84 86 89 96 102 106 107 107 105 102 100 97 94 90 86 82 80 71 53 28 352 330 319 312 307 304 302 306 313
12 13 17 21 28 26 31 37 38 36 46 60 67 73 77 79 79 81 81 85 88 91 92 93 94 94 93 88 83 75 68 59 58 56 46 21 356 342 339 335 329 313 297 296 301 303 309
4 6 8 11 19 26 25 30 34 39 41 42 58 65 73 82 87 88 91 95 96 99 100 101 101 95 84 70 62 51 38 28 36 17 2 357 359 348 351 350 342 337 338 322 307 304 308
354 355 1 3 7 15 23 23 28 30 38 45 43 54 61 65 72 79 89 95 99 102 106 105 101 96 69 36 15 1 354 7 6 4 2 358 356 354 337 343 340 330 331 327 323 315 322
349 349 349 355 356 2 11 17 21 24 22 31 37 40 48 56 60 58 59 58 60 61 56 41 9 348 346 347 352 1 5 4 359 357 354 348 347 346 324 322 323 320 319 315 314 313 316
344 341 344 345 349 351 358 5 11 17 21 16 20 20 27 40 49 52 54 51 47 33 18 7 2 5 7 8 7 2 1 358 353 348 344 341 341 341 329 314 319 315 311 310 309 308 308
337 338 339 339 340 341 345 354 357 4 10 18 9 355 355 360 8 19 33 37 26 16 16 16 7 356 353 351 350 353 349 343 338 335 331 329 327 327 329 318 314 309 308 309 307 304 302
329 333 335 334 331 333 329 336 345 348 354 2 7 15 330 319 326 327 335 341 348 352 345 348 343 342 340 337 340 336 331 329 325 323 319 318 318 317 316 309 307 298 293 296 296 297 299
317 325 328 330 334 323 325 323 319 327 333 339 348 360 11 356 295 294 303 309 312 316 321 327 325 323 324 326 325 326 323 320 330 332 323 330 339 339 334 333 322 298 298 288 292 291 294
303 316 320 321 326 327 321 320 316 309 311 318 322 333 347 356 3 343 308 301 301 304 309 313 313 316 317 323 326 331 337 341 350 349 350 347 355 348 355 356 355 334 309 292 283 286 289
291 301 310 311 316 322 319 319 312 310 299 299 300 301 310 324 336 351 355 343 323 315 310 306 310 313 327 336 336 340 348 353 346 342 348 351 355 354 357 353 0 1 12 1 334 302 285
287 291 299 307 306 313 310 307 310 306 300 289 291 297 294 296 301 312 321 328 332 322 322 321 325 325 330 332 330 328 333 334 327 331 334 347 345 348 350 352 351 355 358 1 7 357 326
Height
5668 5650 5635 5618 5597 5572 5552 5552 5550 5550 5551 5556 5559 5558 5558 5558 5562 5569 5575 5585 5599 5615 5629 5644 5659 5669 5678 5686 5696 5705 5716 5725 5734 5740 5747 5753 5757 5761 5765 5769 5772 5774 5776 5778 5780 5782 5783
5663 5648 5632 5615 5594 5564 5549 5550 5547 5547 5546 5549 5552 5551 5547 5549 5555 5565 5571 5580 5594 5610 5625 5641 5654 5666 5674 5683 5688 5698 5709 5720 5729 5736 5742 5748 5752 5756 5760 5764 5767 5769 5771 5772 5774 5775 5776
5663 5648 5633 5612 5592 5569 5550 5547 5546 5544 5543 5545 5546 5545 5543 5544 5553 5563 5571 5579 5590 5608 5626 5635 5651 5660 5669 5677 5684 5692 5704 5714 5724 5732 5738 5743 5748 5753 5756 5759 5762 5764 5765 5766 5767 5767 5769
5664 5651 5635 5617 5597 5575 5559 5553 5548 5543 5543 5543 5542 5540 5541 5545 5554 5561 5570 5579 5590 5607 5622 5630 5647 5657 5667 5674 5682 5690 5699 5709 5719 5727 5734 5739 5744 5748 5751 5754 5756 5758 5759 5759 5760 5761 5762
5668 5655 5640 5623 5606 5590 5574 5563 5554 5548 5545 5543 5542 5543 5546 5552 5558 5565 5572 5579 5591 5606 5622 5627 5646 5657 5666 5672 5680 5688 5697 5708 5716 5723 5730 5735 5740 5744 5747 5749 5751 5752 5753 5753 5754 5755 5755
5675 5660 5647 5631 5615 5603 5591 5577 5566 5558 5551 5549 5550 5553 5558 5561 5564 5568 5574 5583 5592 5606 5620 5630 5644 5655 5664 5673 5680 5690 5698 5707 5714 5720 5727 5732 5736 5740 5742 5744 5746 5747 5747 5748 5747 5750 5748
5682 5667 5655 5641 5626 5613 5602 5592 5581 5574 5569 5566 5565 5566 5568 5569 5570 5573 5578 5585 5599 5612 5625 5637 5645 5659 5667 5675 5682 5690 5699 5706 5713 5719 5724 5728 5732 5735 5737 5739 5740 5741 5742 5742 5741 5742 5742
5691 5677 5664 5651 5638 5625 5612 5603 5593 5588 5582 5579 5575 5574 5575 5574 5576 5579 5586 5597 5607 5618 5626 5636 5649 5663 5670 5678 5684 5693 5701 5707 5712 5716 5720 5724 5726 5729 5732 5734 5735 5736 5736 5737 5736 5735 5734
5700 5687 5674 5661 5651 5639 5628 5617 5607 5601 5595 5592 5588 5584 5584 5585 5587 5591 5597 5609 5617 5628 5639 5649 5658 5667 5676 5683 5689 5695 5702 5706 5710 5714 5717 5720 5723 5724 5727 5729 5731 5731 5732 5731 5731 5729 5726
5708 5698 5685 5674 5663 5654 5644 5633 5624 5617 5610 5605 5602 5600 5597 5601 5603 5607 5614 5623 5629 5638 5649 5657 5664 5674 5682 5688 5694 5698 5702 5706 5709 5712 5714 5717 5719 5721 5723 5725 5726 5727 5726 5726 5725 5724 5722
5718 5708 5698 5685 5676 5668 5659 5650 5642 5635 5628 5621 5619 5616 5614 5617 5620 5623 5630 5634 5641 5649 5656 5666 5673 5680 5686 5692 5696 5698 5701 5704 5707 5710 5713 5716 5717 5719 5720 5722 5722 5722 5721 5721 5720 5718 5717
5729 5718 5708 5699 5688 5680 5673 5666 5659 5652 5647 5642 5637 5634 5633 5634 5637 5639 5643 5646 5653 5661 5663 5670 5676 5682 5688 5692 5694 5697 5701 5704 5707 5709 5711 5713 5715 5717 5718 5718 5719 5718 5718 5717 5716 5714 5712
5739 5729 5719 5711 5701 5693 5686 5679 5674 5669 5663 5659 5655 5652 5650 5650 5651 5653 5656 5660 5664 5668 5672 5677 5681 5685 5690 5693 5696 5699 5702 5704 5706 5708 5709 5711 5712 5713 5715 5715 5716 5715 5715 5713 5713 5710 5708
5749 5739 5730 5722 5715 5705 5697 5690 5684 5679 5677 5674 5670 5668 5666 5665 5665 5666 5666 5669 5673 5674 5677 5681 5685 5689 5693 5696 5698 5700 5702 5703 5704 5705 5707 5708 5710 5711 5712 5713 5713 5713 5712 5711 5710 5708 5705
5758 5749 5741 5733 5725 5720 5711 5703 5697 5691 5686 5684 5683 5682 5679 5678 5677 5676 5678 5678 5679 5680 5684 5686 5690 5693 5695 5698 5700 5701 5701 5702 5703 5703 5705 5705 5707 5709 5710 5711 5711 5710 5710 5708 5706 5704 5702
5766 5759 5750 5743 5737 5730 5725 5717 5710 5704 5699 5694 5694 5691 5689 5687 5686 5687 5688 5688 5687 5689 5690 5692 5694 5696 5698 5700 5703 5704 5705 5706 5706 5707 5707 5708 5709 5710 5711 5710 5710 5708 5707 5706 5703 5701 5699
5773 5766 5759 5752 5746 5740 5734 5730 5724 5719 5713 5708 5708 5706 5700 5697 5694 5693 5696 5695 5694 5694 5696 5699 5701 5703 5705 5706 5708 5709 5710 5711 5710 5710 5710 5711 5712 5713 5711 5710 5709 5707 5705 5703 5701 5699 5697
5779 5772 5766 5760 5755 5749 5744 5739 5735 5730 5726 5721 5718 5717 5711 5708 5706 5709 5706 5705 5705 5706 5706 5708 5709 5710 5711 5711 5713 5713 5714 5713 5713 5712 5712 5712 5712 5711 5710 5708 5706 5704 5702 5700 5697 5697 5693
5785 5779 5772 5767 5762 5757 5752 5747 5742 5740 5736 5732 5730 5726 5723 5718 5717 5717 5717 5716 5715 5715 5716 5717 5718 5718 5718 5719 5719 5718 5717 5717 5716 5715 5715 5715 5713 5711 5709 5707 5704 5701 5699 5697 5694 5692 5689
5790 5784 5777 5772 5767 5763 5758 5754 5750 5746 5743 5741 5737 5735 5732 5728 5726 5725 5724 5724 5723 5723 5722 5723 5723 5723 5723 5723 5722 5721 5720 5720 5719 5718 5717 5715 5713 5711 5709 5707 5704 5701 5698 5696 5693 5690 5687
5790 5786 5781 5776 5770 5767 5763 5759 5755 5751 5749 5746 5744 5740 5737 5734 5733 5732 5730 5729 5729 5728 5727 5726 5725 5725 5724 5723 5722 5722 5721 5720 5719 5717 5716 5714 5712 5710 5705 5703 5701 5698 5696 5693 5691 5687 5684
5790 5787 5782 5777 5773 5769 5765 5762 5759 5754 5752 5750 5748 5745 5742 5739 5737 5735 5735 5734 5732 5731 5730 5729 5727 5726 5725 5724 5724 5722 5721 5719 5717 5716 5713 5712 5710 5709 5705 5701 5698 5696 5693 5690 5687 5684 5681
5789 5785 5782 5778 5774 5770 5766 5763 5760 5756 5754 5751 5749 5748 5747 5744 5741 5739 5738 5737 5735 5734 5733 5732 5731 5729 5727 5726 5725 5723 5721 5719 5717 5714 5712 5709 5707 5705 5703 5700 5696 5694 5690 5686 5684 5680 5678
5786 5783 5780 5777 5773 5770 5767 5763 5761 5758 5755 5753 5749 5747 5747 5747 5744 5741 5740 5738 5737 5736 5735 5734 5732 5731 5730 5727 5726 5724 5721 5718 5715 5712 5709 5705 5701 5699 5698 5695 5693 5689 5685 5682 5678 5675 5672
5783 5779 5777 5774 5772 5769 5765 5763 5761 5758 5755 5753 5751 5748 5744 5745 5744 5743 5741 5739 5737 5736 5734 5733 5732 5730 5728 5726 5724 5723 5720 5717 5713 5710 5705 5701 5697 5692 5689 5687 5688 5682 5678 5675 5672 5669 5666
5779 5776 5773 5769 5768 5766 5763 5760 5759 5757 5754 5752 5750 5748 5747 5742 5741 5741 5740 5739 5738 5735 5733 5731 5730 5728 5726 5724 5722 5720 5717 5714 5710 5707 5703 5698 5694 5690 5683 5679 5676 5672 5669 5667 5664 5662 5659
5774 5771 5768 5766 5762 5760 5760 5758 5756 5755 5754 5752 5749 5747 5745 5743 5740 5738 5737 5736 5734 5733 5731 5729 5727 5724 5723 5721 5718 5715 5713 5711 5708 5704 5700 5697 5693 5689 5683 5677 5674 5668 5662 5658 5656 5657 5652
5766 5765 5763 5761 5758 5756 5754 5753 5752 5751 5749 5749 5747 5744 5742 5740 5740 5738 5735 5732 5730 5729 5728 5727 5724 5722 5720 5717 5716 5714 5711 5709 5706 5702 5699 5695 5690 5686 5682 5675 5670 5665 5658 5652 5648 5644 5642
5755 5756 5756 5755 5753 5752 5749 5747 5746 5745 5745 5744 5743 5743 5740 5738 5736 5735 5734 5732 5730 5727 5725 5723 5722 5720 5718 5716 5714 5712 5709 5707 5703 5700 5696 5693 5689 5684 5679 5674 5668 5664 5658 5651 5644 5638 5634